Location: Selby
(38.0566°N, 122.2439°W)
Time: 05:04:12
(UTC+00:00)

Sich 1 Rocket - Pass Details

Date: 22 May 2024
Orbit: 613 x 649 km, 82.5° (Epoch: 13 June)

Event Time Altitude Azimuth Distance (km) Brightness Sun altitude
Rises 11:58:18 0° 342° (NNW) 2,946 7.3 -10.0°
Reaches altitude 10° 12:00:43 10° 333° (NNW) 2,026 6.3 -9.6°
Maximum altitude 12:04:43 32° 270° (W) 1,075 4.4 -8.9°
Drops below altitude 10° 12:08:39 10° 207° (SSW) 1,992 5.6 -8.3°
Enters shadow 12:09:48 - 201° (SSW) 2,414 6.1 -8.1°
